Printer-friendly version

IAU Minor Planet Center

Minor Planet Center

MPEC 2006-C08 : 2000 DQ110

The following Minor Planet Electronic Circular may be linked-to from your own Web pages, but must not otherwise be redistributed electronically.


Read MPEC 2006-C07 Read MPEC 2006-C09


M.P.E.C. 2006-C08                                Issued 2006 Feb. 3, 16:15 UT

     The Minor Planet Electronic Circulars contain information on unusual
         minor planets and routine data on comets.  They are published
   on behalf of Commission 20 of the International Astronomical Union by the
          Minor Planet Center, Smithsonian Astrophysical Observatory,
                          Cambridge, MA 02138, U.S.A.

                  Supported in part by the Brinson Foundation
                  Supported in part by the TABASGO Foundation
             Prepared using the Tamkin Foundation Computer Network

                              MPC@CFA.HARVARD.EDU
          URL http://cfa-www.harvard.edu/iau/mpc.html  ISSN 1523-6714

                                  2000 DQ110

                           Revision to MPEC 2000-E41

Additional Observations:
     K00DB0Q  C2006 02 02.50529 16 38 37.24 +63 47 43.3          18.7 V EC008703
     K00DB0Q  C2006 02 02.50760 16 38 36.52 +63 47 48.1          18.8 V EC008703
     K00DB0Q  C2006 02 02.50998 16 38 35.73 +63 47 52.5          18.8 V EC008703
     K00DB0Q  C2006 02 02.51233 16 38 34.94 +63 47 57.4          18.7 V EC008703
     K00DB0Q  C2006 02 03.06383 16 35 39.12 +64 06 29.4          18.2 R EC008118
     K00DB0Q  C2006 02 03.06727 16 35 37.96 +64 06 36.4          18.4 R EC008118
     K00DB0Q  C2006 02 03.07412 16 35 35.64 +64 06 50.4          18.9 R EC008118
     K00DB0Q  C2006 02 03.07753 16 35 34.73 +64 06 57.4          18.6 R EC008118
     K00DB0Q  C2006 02 03.48868 16 33 17.98 +64 20 57.1          18.6 R EC008734
     K00DB0Q  C2006 02 03.49310 16 33 16.49 +64 21 06.1          18.3 R EC008734
     K00DB0Q  C2006 02 03.49752 16 33 14.98 +64 21 15.1          18.5 R EC008734

Observer details:
118 Modra.  Observer J. Vilagi.  0.6-m f/5.5 reflector + CCD.
703 Catalina Sky Survey.  Observer E. J. Christensen.  Measurers E. C. Beshore,
    E. J. Christensen, G. J. Garradd, A. D. Grauer, R. E. Hill, R. A. Kowalski,
    S. M. Larson, R. H. McNaught.  0.68-m Schmidt + CCD.
734 Farpoint Observatory.  Observer G. Hug.  0.7-m reflector + CCD.

First and last observations above in comparison with prediction:
Residuals in seconds of arc (or two decimals in degrees), reference and Delta-T
060202 703 2.19- 0.80-    060203 734 2.19- 0.85-    MPO 57758   -1.9 day

Orbital elements:
2000 DQ110                                               Earth MOID = 0.6992 AU
Epoch 2006 Mar. 6.0 TT = JDT 2453800.5                  MPC
M  12.15386              (2000.0)            P               Q
n   0.16032653     Peri.   95.66233     +0.01339815     -0.98376533
a   3.3558236      Node   347.86180     +0.15077364     +0.17891620
e   0.6309810      Incl.   58.33030     +0.98847752     -0.01395602
P   6.15           H   16.3           G   0.15           U   3
Residuals in seconds of arc
000226 703  0.8-  1.1+    000302 106  0.4-  0.3-    000307 474  0.1+  0.1-
000226 703 (1.1+  3.6+)   000303 046  0.2+  0.2-    000307 474  0.1+  0.1-
000226 703  1.8+  0.3-    000303 046  0.3+  0.0     000307 474  0.0   0.1-
000229 704  0.1+  0.1-    000303 046  0.9+  0.4-    000307 474  0.1+  0.2-
000229 704  0.1+  0.0     000303 046  0.1+  0.0     000307 118  0.7+  0.2+
000229 704  0.9+  0.2+    000303 557  0.0   0.3+    000307 118  0.2-  0.1+
000229 704  0.5+  0.5+    000303 557  0.3+  0.4-    000307 118  0.2+  0.2+
000229 704  1.9+  0.6+    000303 557  0.1+  0.1+    000308 850  0.3-  0.5+
000229 046  0.6-  0.7-    000303 704  0.3+  0.6+    000308 850 (2.5-  1.0-)
000229 046  0.1+  1.1+    000303 704  0.3+  0.4+    000308 850  0.8-  0.5-
000229 046  1.0-  1.2+    000303 704  0.5+  1.0+    000308 850  0.4-  0.7-
000229 046  0.0   0.1+    000303 704  1.1+  1.1+    000308 704  0.7+  0.6-
000229 046  0.1+  0.0     000303 704  0.9+  1.2+    000308 704  1.1+  1.1+
000301 344  0.3-  0.6-    000303 474  0.5-  0.1+    000308 704  0.2+  0.5-
000301 344  0.9-  0.6-    000303 474  0.3-  0.0     000308 704  0.7-  0.3+
000301 344  0.1+  0.4-    000303 474  0.5-  0.0     000308 704  0.4+  0.1-
000301 422  0.2+  0.2-    000303 474  0.4-  0.0     000309 704  0.3+  0.5+
000301 422  0.6-  0.5+    000303 422  0.2+  0.3+    000309 704  0.3-  0.0
000301 422  0.1-  0.5+    000303 422  0.5-  0.3+    000309 704  0.1+  0.1+
000301 402  0.2-  0.2+    000303 422  0.0   0.2-    000309 704  0.1-  0.1+
000301 402  0.6+  0.1+    000304 704  0.4-  0.5+    000309 704  0.1-  0.0
000301 402  0.9+  0.1-    000304 704  0.4-  0.2+    000309 345 (2.3-  1.1-)
000301 402  0.5+  0.5-    000304 704  0.1+  0.3+    000309 345  0.2-  0.2-
000302 651  0.3-  0.5-    000304 704  0.3-  0.3-    000309 345  0.4+  0.0
000302 651  0.1+  0.6-    000304 704  0.3-  0.4+    000309 345  0.1+  0.1+
000302 651  0.2+  0.5-    000304 474  0.1+  0.2+    000310 704  0.6+  0.6+
000302 670  1.1-  1.1-    000304 474  0.0   0.2+    000310 704  0.2+  0.2+
000302 422  1.7-  0.1+    000304 474  0.2-  0.1-    000310 704  0.6+  0.2+
000302 422  0.4+  0.4-    000304 474  0.8+  0.2+    000310 704  0.1+  0.2-
000302 422  0.5-  0.7-    000305 649 (2.9+  2.9+)   000310 461  0.3-  0.6+
000302 670  0.4+  1.1-    000305 649 (2.9+  0.5+)   000310 461  0.6-  0.1+
000302 474  0.1+  0.2+    000305 704  0.0   0.6+    000310 461  0.3+  0.5+
000302 474  0.2-  0.3+    000305 704  0.4-  0.4-    000311 670  0.5-  0.9-
000302 474  0.1-  0.3-    000305 704  0.3+  0.1+    000311 670 (2.3-  1.1-)
000302 474  0.1+  0.1-    000305 704  0.0   0.0     000314 413  0.3-  0.0
000302 474  0.0   0.3+    000305 704  0.2+  0.1+    000314 413  0.1-  0.0
000302 344  0.6-  0.9-    000306 474  0.2-  0.0     000430 413  0.3-  0.1+
000302 344  0.6-  0.9-    000306 474  0.0   0.1-    000430 413  0.1-  0.1+
000302 344  0.7-  0.9-    000306 474  0.2-  0.1+    000430 413  0.1+  0.0
000302 118  0.3-  0.4+    000306 046  0.3+  0.5+    060202 703  0.3+  0.3+
000302 118  0.6-  0.7+    000306 046  0.3-  0.1-    060202 703  0.4+  0.4+
000302 104  0.5+  0.7-    000306 046  0.3-  0.3-    060202 703  0.2+  0.1-
000302 118  0.7-  0.4+    000306 046  0.2-  0.2-    060202 703  0.1-  0.0
000302 104  0.2-  0.5-    000306 587  0.1+  0.3-    060203 118  0.0   0.0
000302 104  0.7-  0.6-    000306 587  0.5-  0.1-    060203 118  0.2-  0.1-
000302 106  0.1-  0.3-    000307 106  0.2-  0.7-    060203 118  0.7-  0.2-
000302 106  0.6+  0.2+    000307 106  0.3+  0.2+    060203 118  0.7+  0.3-
000302 595  0.3-  0.2-    000307 106  1.2+  0.8-    060203 734  0.5-  0.1-
000302 595  0.9-  0.3+    000307 608  0.1-  0.4-    060203 734  0.4-  0.2-
000302 595  0.1-  0.2-    000307 608  0.7+  0.3-    060203 734  0.3-  0.3-

Ephemeris:
2000 DQ110               a,e,i = 3.36, 0.63, 58                  q = 1.2384
Date    TT    R. A. (2000) Decl.     Delta      r     Elong.  Phase     V
2006 02 04    16 30.37   +64 38.2    0.828    1.357    96.5    46.2    18.3
2006 02 14    15 02.61   +69 42.7    0.765    1.409   106.4    42.2    18.1
2006 02 24    12 35.35   +69 41.8    0.728    1.468   116.6    37.1    17.9
2006 03 06    10 39.91   +61 24.5    0.735    1.531   124.2    32.4    17.9
2006 03 16    09 46.29   +49 35.6    0.795    1.599   126.3    30.1    18.1
2006 03 26    09 23.37   +38 24.9    0.903    1.670   122.9    30.1    18.5
2006 04 05    09 14.53   +29 14.8    1.050    1.743   116.5    30.9    18.9
2006 04 15    09 12.98   +22 03.5    1.223    1.818   109.1    31.4    19.4
2006 04 25    09 15.59   +16 24.6    1.413    1.893   101.7    31.4    19.8
2006 05 05    09 20.83   +11 51.9    1.613    1.969    94.6    30.7    20.1
2006 05 15    09 27.82   +08 05.3    1.819    2.046    87.8    29.6    20.4
2006 05 25    09 36.01   +04 50.8    2.026    2.122    81.2    28.1    20.7
2006 06 04    09 45.07   +01 58.2    2.231    2.198    74.9    26.5    20.9
2006 06 14    09 54.76   -00 39.3    2.433    2.273    68.9    24.6    21.2
2006 06 24    10 04.91   -03 06.5    2.628    2.348    63.0    22.7    21.3

Kyle E. Smalley              (C) Copyright 2006 MPC           M.P.E.C. 2006-C08

Read MPEC 2006-C07 Read MPEC 2006-C09


Our Web policy. Index to the CBAT/MPC/ICQ pages.


Valid HTML 4.01!